Voltar ao catálogo

STARLINK-32524

AtivoComunicaçõesVLEO
NORAD 62159·PAYLOAD·🇺🇸 United States

Lançado Nov 30, 2024 de Cape Canaveral Space Force Station

Loading…

Próximas Passagens (próximas 24 horas)

TLE

AtualizadoSource: CelesTrak SupGP

Época: Sep 14, 2026, 22:21 UTC

1 62159C 24224W   26257.93173611 -.00022525  00000+0 -81587-3 0  2576
2 62159  43.0017 172.8361 0001286 262.8238  39.8405 15.27589745    19

Acompanhe STARLINK-32524 em tempo real com AllMySat

Download on the App Store